Weather History for Farmington, MO

Change the Weather History Date:

Saturday, January 25, 2014

  Actual Average Record
Temperature  
Mean Temperature 34 °F -  
Max Temperature 48 °F 40 °F 64 °F (2005)
Min Temperature 19 °F 23 °F 5 °F (2008)
Degree Days  
Heating Degree Days 32    
Moisture  
Dew Point 8 °F    
Average Humidity 33    
Maximum Humidity 58    
Minimum Humidity 12    
Precipitation  
Precipitation 0.00 in - - ()
Sea Level Pressure  
Sea Level Pressure 29.86 in    
Wind  
Wind Speed 12 mph (WNW)    
Max Wind Speed 28 mph    
Max Gust Speed 41 mph    
Visibility 10 miles    
Events      
Averages and records for this station are not official NWS values.
T = Trace of Precipitation, MM = Missing Value Source: NWS Daily Summary

Daily Weather History Graph

Daily Weather History Graph

Search for Another Location

Airport:

Trip Planner

Search our weather history database for the weather conditions in past years. The results will help you decide how hot, cold, wet, or windy it might be!

Date:

Astronomy

Jan. 25, 2014 Rise Set
Actual Time 7:10 AM CST 5:17 PM CST
Civil Twilight 6:42 AM CST 5:45 PM CST
Nautical Twilight 6:11 AM CST 6:17 PM CST
Astronomical Twilight 5:40 AM CST 6:48 PM CST
Moon 1:43 AM CST (1/25) 12:18 PM CST (1/25)
Length of Visible Light 11h 02m
Length of Day
10h 06m
Waning Crescent, 34% of the Moon is Illuminated
Jan 25
Waning Crescent
Jan 30
New
Feb 6
First Quarter
Feb 14
Full
Feb 22
Last Quarter

Hourly Weather History & Observations

Time (CST) Temp. Windchill Dew Point Humidity Pressure Visibility Wind Dir Wind Speed Gust Speed Precip Events Conditions
12:15 AM 30.2 °F 20.2 °F 3.2 °F 32% 29.84 in 10.0 mi SW 12.7 mph - N/A   Mostly Cloudy
12:35 AM 30.2 °F 18.9 °F 3.2 °F 32% 29.82 in 10.0 mi SSW 16.1 mph - N/A   Overcast
12:55 AM 30.2 °F 20.8 °F 3.2 °F 32% 29.80 in 10.0 mi South 11.5 mph - N/A   Overcast
1:15 AM 30.2 °F 19.8 °F 3.2 °F 32% 29.79 in 10.0 mi South 13.8 mph - N/A   Overcast
1:35 AM 33.8 °F 23.5 °F 6.8 °F 32% 29.78 in 10.0 mi SW 16.1 mph - N/A   Overcast
1:55 AM 33.8 °F 23.9 °F 6.8 °F 32% 29.78 in 10.0 mi SW 15.0 mph 23.0 mph N/A   Overcast
2:15 AM 33.8 °F 24.3 °F 8.6 °F 35% 29.76 in 10.0 mi SW 13.8 mph 18.4 mph N/A   Overcast
2:35 AM 33.8 °F 24.8 °F 6.8 °F 32% 29.75 in 10.0 mi SSW 12.7 mph - N/A   Overcast
2:55 AM 32.0 °F 23.0 °F 6.8 °F 35% 29.75 in 10.0 mi SSW 11.5 mph - N/A   Overcast
3:15 AM 33.8 °F 25.3 °F 6.8 °F 32% 29.75 in 10.0 mi SSW 11.5 mph - N/A   Overcast
3:35 AM 33.8 °F 25.3 °F 8.6 °F 35% 29.74 in 10.0 mi SW 11.5 mph - N/A   Overcast
3:55 AM 33.8 °F 26.4 °F 6.8 °F 32% 29.73 in 10.0 mi SW 9.2 mph 19.6 mph N/A   Overcast
4:15 AM 35.6 °F 26.6 °F 10.4 °F 35% 29.73 in 10.0 mi WSW 13.8 mph 17.3 mph N/A   Overcast
4:35 AM 37.4 °F 29.3 °F 8.6 °F 30% 29.73 in 10.0 mi WSW 12.7 mph 20.7 mph N/A   Overcast
4:55 AM 37.4 °F 29.3 °F 8.6 °F 30% 29.74 in 10.0 mi WSW 12.7 mph 17.3 mph N/A   Overcast
5:15 AM 37.4 °F 30.8 °F 10.4 °F 33% 29.74 in 10.0 mi WSW 9.2 mph - N/A   Overcast
5:35 AM 37.4 °F 30.8 °F 10.4 °F 33% 29.74 in 10.0 mi West 9.2 mph - N/A   Overcast
5:55 AM 37.4 °F 32.8 °F 10.4 °F 33% 29.75 in 10.0 mi West 5.8 mph - N/A   Overcast
6:15 AM 37.4 °F 30.3 °F 12.2 °F 36% 29.75 in 10.0 mi West 10.4 mph - N/A   Overcast
6:35 AM 39.2 °F 34.2 °F 14.0 °F 36% 29.76 in 10.0 mi West 6.9 mph - N/A   Overcast
6:55 AM 39.2 °F 33.6 °F 15.8 °F 39% 29.76 in 10.0 mi WNW 8.1 mph - N/A   Overcast
7:15 AM 41.0 °F 34.3 °F 19.4 °F 42% 29.78 in 10.0 mi WNW 11.5 mph - N/A   Overcast
7:35 AM 42.8 °F 36.6 °F 21.2 °F 42% 29.78 in 10.0 mi NW 11.5 mph 24.2 mph N/A   Overcast
7:55 AM 42.8 °F 35.8 °F 23.0 °F 46% 29.80 in 10.0 mi NW 13.8 mph 19.6 mph N/A   Overcast
8:15 AM 42.8 °F 38.0 °F 23.0 °F 46% 29.81 in 10.0 mi NW 8.1 mph 18.4 mph N/A   Overcast
8:35 AM 41.0 °F 34.7 °F 24.8 °F 53% 29.81 in 10.0 mi NW 10.4 mph 19.6 mph N/A   Overcast
8:55 AM 42.8 °F 38.0 °F 26.6 °F 53% 29.82 in 10.0 mi NW 8.1 mph - N/A   Mostly Cloudy
9:15 AM 42.8 °F 36.6 °F 26.6 °F 53% 29.83 in 10.0 mi WNW 11.5 mph - N/A   Scattered Clouds
9:35 AM 44.6 °F 39.2 °F 26.6 °F 49% 29.82 in 10.0 mi NW 10.4 mph 18.4 mph N/A   Partly Cloudy
9:55 AM 44.6 °F 37.2 °F 24.8 °F 46% 29.83 in 10.0 mi NW 17.3 mph 23.0 mph N/A   Clear
10:15 AM 46.4 °F 40.4 °F 23.0 °F 40% 29.83 in 10.0 mi NW 13.8 mph 24.2 mph N/A   Clear
10:35 AM 46.4 °F 40.7 °F 23.0 °F 40% 29.83 in 10.0 mi WNW 12.7 mph 27.6 mph N/A   Clear
10:55 AM 46.4 °F 39.2 °F 21.2 °F 37% 29.84 in 10.0 mi NW 18.4 mph 33.4 mph N/A   Scattered Clouds
11:15 AM 48.2 °F - 23.0 °F 37% 29.84 in 10.0 mi WNW 20.7 mph 31.1 mph N/A   Mostly Cloudy
11:35 AM 48.2 °F - 23.0 °F 37% 29.85 in 10.0 mi WNW 19.6 mph 34.5 mph N/A   Overcast
11:55 AM 46.4 °F 38.7 °F 24.8 °F 43% 29.85 in 10.0 mi NW 20.7 mph 27.6 mph N/A   Overcast
12:15 PM 44.6 °F 37.8 °F 24.8 °F 46% 29.84 in 10.0 mi WNW 15.0 mph 32.2 mph N/A   Overcast
12:35 PM 46.4 °F 38.3 °F 24.8 °F 43% 29.85 in 10.0 mi NW 23.0 mph 26.5 mph N/A   Mostly Cloudy
12:55 PM 46.4 °F 38.5 °F 24.8 °F 43% 29.85 in 10.0 mi WNW 21.9 mph 29.9 mph N/A   Mostly Cloudy
1:15 PM 48.2 °F - 21.2 °F 34% 29.85 in 10.0 mi NW 21.9 mph 41.4 mph N/A   Mostly Cloudy
1:35 PM 46.4 °F 37.7 °F 23.0 °F 40% 29.85 in 10.0 mi NW 26.5 mph 32.2 mph N/A   Mostly Cloudy
1:55 PM 46.4 °F 39.0 °F 23.0 °F 40% 29.85 in 10.0 mi NW 19.6 mph 33.4 mph N/A   Scattered Clouds
2:15 PM 46.4 °F 38.7 °F 21.2 °F 37% 29.86 in 10.0 mi NW 20.7 mph 32.2 mph N/A   Partly Cloudy
2:35 PM 46.4 °F 38.1 °F 19.4 °F 34% 29.87 in 10.0 mi WNW 24.2 mph 36.8 mph N/A   Clear
2:55 PM 44.6 °F 37.2 °F 17.6 °F 34% 29.88 in 10.0 mi WNW 17.3 mph 33.4 mph N/A   Clear
3:15 PM 44.6 °F 36.4 °F 12.2 °F 27% 29.89 in 10.0 mi NW 20.7 mph 32.2 mph N/A   Clear
3:35 PM 42.8 °F 32.7 °F 1.4 °F 18% 29.91 in 10.0 mi NW 27.6 mph 39.1 mph N/A   Clear
3:55 PM 42.8 °F 33.3 °F -4.0 °F 14% 29.92 in 10.0 mi NW 24.2 mph 32.2 mph N/A   Clear
4:15 PM 41.0 °F 31.1 °F -5.8 °F 14% 29.93 in 10.0 mi NW 23.0 mph 28.8 mph N/A   Clear
4:35 PM 39.2 °F 30.2 °F -7.6 °F 14% 29.94 in 10.0 mi WNW 17.3 mph 26.5 mph N/A   Clear
4:55 PM 39.2 °F 31.2 °F -9.4 °F 12% 29.96 in 10.0 mi WNW 13.8 mph 19.6 mph N/A   Clear
5:15 PM 37.4 °F 28.2 °F -9.4 °F 13% 29.95 in 10.0 mi NW 16.1 mph 23.0 mph N/A   Clear
5:35 PM 35.6 °F 28.6 °F -11.2 °F 13% 29.96 in 10.0 mi NW 9.2 mph 24.2 mph N/A   Clear
5:55 PM 33.8 °F 28.6 °F -11.2 °F 14% 29.97 in 10.0 mi NNW 5.8 mph - N/A   Clear
6:15 PM 33.8 °F 29.6 °F -11.2 °F 14% 29.98 in 10.0 mi NNW 4.6 mph - N/A   Clear
6:35 PM 30.2 °F 26.7 °F -11.2 °F 16% 29.99 in 10.0 mi NW 3.5 mph - N/A   Clear
6:55 PM 30.2 °F - -9.4 °F 18% 29.98 in 10.0 mi Calm Calm - N/A   Clear
7:15 PM 32.0 °F - -9.4 °F 17% 29.99 in 10.0 mi Calm Calm - N/A   Clear
7:35 PM 30.2 °F - -9.4 °F 18% 29.98 in 10.0 mi Calm Calm - N/A   Clear
7:55 PM 30.2 °F - -9.4 °F 18% 29.98 in 10.0 mi Calm Calm - N/A   Clear
8:15 PM 30.2 °F 24.3 °F -9.4 °F 18% 29.99 in 6.0 mi NNW 5.8 mph - N/A   Clear
8:35 PM 26.6 °F 21.2 °F -7.6 °F 22% 29.98 in 10.0 mi NNW 4.6 mph - N/A   Clear
8:55 PM 28.4 °F 23.3 °F -5.8 °F 23% 29.97 in 10.0 mi NNW 4.6 mph - N/A   Clear
9:15 PM 21.2 °F 14.9 °F -5.8 °F 30% 29.98 in 10.0 mi SW 4.6 mph - N/A   Clear
9:35 PM 23.0 °F - 1.4 °F 39% 29.97 in 10.0 mi Calm Calm - N/A   Clear
9:55 PM 24.8 °F 20.5 °F -2.2 °F 31% 29.96 in 10.0 mi South 3.5 mph - N/A   Clear
10:15 PM 23.0 °F - -0.4 °F 36% 29.96 in 10.0 mi Calm Calm - N/A   Clear
10:35 PM 21.2 °F - -2.2 °F 36% 29.95 in 10.0 mi Calm Calm - N/A   Clear
10:55 PM 19.4 °F - -0.4 °F 42% 29.95 in 10.0 mi Calm Calm - N/A   Clear
11:15 PM 19.4 °F - 3.2 °F 49% 29.95 in 10.0 mi Calm Calm - N/A   Clear
11:35 PM 19.4 °F - 3.2 °F 49% 29.94 in 10.0 mi Calm Calm - N/A   Clear
11:55 PM 19.4 °F 14.3 °F 6.8 °F 58% 29.92 in 10.0 mi SSW 3.5 mph - N/A   Clear